Location: Newark
(34.0111°N, 88.4892°W)
Time: 02:03:22
(UTC+00:00)

N. Korean satellite - Visible Passes

Search period start: 26 February 2020 00:00
Search period end: 07 March 2020 00:00
Orbit: 456 x 505 km, 97.2° (Epoch: 25 February)

Date Brightness Start Highest point End Pass type
(mag) Time Alt. Az. Time Alt. Az. Time Alt. Az.
26 Feb 9.3 10:55:22 10° NE 10:58:17 22° E 11:01:10 10° SSE visible
28 Feb 6.6 11:36:55 10° N 11:40:37 90° ESE 11:44:15 10° SSW visible
29 Feb 8.3 11:11:37 10° NNE 11:15:03 37° E 11:18:25 10° SSE visible
01 Mar 9.7 10:46:58 10° NE 10:49:24 17° E 10:51:48 10° SE visible
02 Mar 6.8 11:53:43 10° N 11:57:16 50° WNW 12:00:46 10° SSW visible
03 Mar 7.0 11:28:07 10° NNE 11:31:46 67° E 11:35:20 10° S visible
04 Mar 8.9 11:02:59 10° NE 11:06:09 28° E 11:09:16 10° SSE visible
05 Mar 10.0 10:38:46 10° ENE 10:40:27 13° E 10:42:07 10° ESE visible
06 Mar 6.5 11:44:48 10° N 11:48:25 68° WNW 11:51:57 10° SSW visible
